Regional Weather Roundup
Issued by NWS

Home | Current Version | Previous Version | Graphics & Text | Print | Product List | Glossary On
Versions: 1 2 3 4 5 6 7 8 9 10 11 12 13 14 15 16 17 18 19 20 21 22 23 24 25 26 27 28 29 30 31 32 33 34 35 36 37 38 39 40 41 42 43 44 45 46 47 48 49 50
149
ASUS43 KFSD 230802
RWRSD

WEATHER ROUNDUP FOR SOUTH DAKOTA
NATIONAL WEATHER SERVICE SIOUX FALLS SD
300 AM CDT TUE MAY 23 2017

NOTE: "FAIR" INDICATES FEW OR NO CLOUDS BELOW 12,000 FEET WITH NO
SIGNIFICANT WEATHER AND/OR OBSTRUCTIONS TO VISIBILITY.


SDZ001>005-009-010-012>017-230900-
NORTHWEST AND NORTH CENTRAL SOUTH DAKOTA

CITY           SKY/WX    TMP DP  RH WIND       PRES   REMARKS
BUFFALO          N/A     50  41  71 N10       30.06S
FAITH            N/A     47  37  68 N17       30.07R
MOBRIDGE       CLOUDY    49  40  71 NW12      30.00F
$$

SDZ012>016-024>037-041>051-057-063-072>074-230900-
SOUTHWEST AND SOUTH CENTRAL SOUTH DAKOTA

CITY           SKY/WX    TMP DP  RH WIND       PRES   REMARKS
RAPID CTY ARPT CLOUDY    47  40  76 NW8       30.11F
PIERRE         CLOUDY    53  39  59 NW17      29.97F
CUSTER         CLEAR     32  29  88 SW3       30.15F
ELLSWORTH AFB  CLOUDY    49  41  74 NW10      30.10F
PHILIP         CLOUDY    50  45  83 NW12      30.04F
PINE RIDGE     CLOUDY    44  42  93 CALM      30.12F
SPEARFISH      CLOUDY    45  39  81 W8        30.16F
WINNER         CLOUDY    51  44  77 W9        29.98F
$$

SDZ004>011-016>023-039-040-230900-
NORTHEAST SOUTH DAKOTA

CITY           SKY/WX    TMP DP  RH WIND       PRES   REMARKS
ABERDEEN       CLOUDY    47  42  83 N16       29.94F
WATERTOWN      CLOUDY    46  44  93 NW13      29.88F
BROOKINGS      CLOUDY    46  44  93 NW14      29.88F
SISSETON         N/A     48  46  93 N13       29.88F
$$

SDZ017-020-022-023-036>040-048>070-230900-
SOUTHEAST SOUTH DAKOTA

CITY           SKY/WX    TMP DP  RH WIND       PRES   REMARKS
SIOUX FALLS    MOCLDY    48  44  86 NW9       29.90F
HURON          LGT RAIN  47  45  93 NW10      29.94F
MITCHELL       CLOUDY    48  45  89 W7        29.94F
YANKTON        CLEAR     46  43  89 NW9       29.94
$$

ABBREVIATIONS USED IN REMARKS
   TC - TEMPERATURE IN CELSIUS
  WCI - WIND CHILL INDEX
   HX - HEAT INDEX
  VSB - VISIBILITY





USA.gov is the U.S. government's official web portal to all federal, state and local government web resources and services.